Weather History for PAWD - November, 2013

Change the Weather History Date:

Saturday, November 23, 2013

  Actual Average Record
Temperature  
Mean Temperature 24 °F -  
Max Temperature 30 °F 35 °F 50 °F (1992)
Min Temperature 19 °F 25 °F 6 °F (1955)
Degree Days  
Heating Degree Days 40    
Moisture  
Dew Point 25 °F    
Average Humidity 88    
Maximum Humidity 100    
Minimum Humidity 69    
Precipitation  
Precipitation 0.00 in - - ()
Sea Level Pressure  
Sea Level Pressure 29.91 in    
Wind  
Wind Speed 2 mph (NNW)    
Max Wind Speed 6 mph    
Max Gust Speed -    
Visibility 4 miles    
Events Fog , Snow    
Averages and records for this station are not official NWS values.
T = Trace of Precipitation, MM = Missing Value Source: NWS Daily Summary

Daily Weather History Graph

Daily Weather History Graph

Search for Another Location

Airport or City:

Trip Planner

Search our weather history database for the weather conditions in past years. The results will help you decide how hot, cold, wet, or windy it might be!

Date:

Astronomy

Nov. 23, 2013 Rise Set
Actual Time 9:17 AM AKST 4:10 PM AKST
Civil Twilight 8:25 AM AKST 5:02 PM AKST
Nautical Twilight 7:31 AM AKST 5:56 PM AKST
Astronomical Twilight 6:41 AM AKST 6:46 PM AKST
Moon 10:29 PM AKST (11/23) 1:03 PM AKST (11/23)
Length of Visible Light 8h 37m
Length of Day
6h 53m
Waning Gibbous, 68% of the Moon is Illuminated
Nov 23
Waning Gibbous
Nov 25
Last Quarter
Dec 2
New
Dec 9
First Quarter
Dec 17
Full

Hourly Weather History & Observations

Time (AKST) Temp. Windchill Dew Point Humidity Pressure Visibility Wind Dir Wind Speed Gust Speed Precip Events Conditions
12:53 AM 25.0 °F 20.7 °F 21.0 °F 85% 29.49 in 10.0 mi North 3.5 mph - N/A   Clear
1:53 AM 26.1 °F 21.9 °F 24.1 °F 92% 29.50 in 10.0 mi NNW 3.5 mph - N/A   Overcast
3:53 AM 23.0 °F - 18.0 °F 81% 29.55 in 10.0 mi Calm Calm - N/A   Clear
4:53 AM 25.0 °F 18.1 °F 17.1 °F 72% 29.58 in 10.0 mi NE 5.8 mph - N/A   Clear
5:53 AM 24.1 °F - 15.1 °F 69% 29.62 in 10.0 mi Calm Calm - N/A   Clear
6:53 AM 21.9 °F 14.5 °F 17.1 °F 82% 29.66 in 10.0 mi North 5.8 mph - N/A   Clear
7:53 AM 21.0 °F 16.2 °F 17.1 °F 85% 29.70 in 10.0 mi NNW 3.5 mph - N/A   Clear
8:53 AM 19.9 °F 13.4 °F 15.1 °F 81% 29.74 in 10.0 mi NW 4.6 mph - N/A   Clear
9:53 AM 19.9 °F 14.9 °F 17.1 °F 89% 29.78 in 10.0 mi North 3.5 mph - N/A   Overcast
10:53 AM 25.0 °F 18.1 °F 19.0 °F 78% 29.81 in 10.0 mi North 5.8 mph - N/A   Overcast
11:53 AM 26.1 °F - 19.0 °F 75% 29.84 in 10.0 mi Calm Calm - N/A   Overcast
12:53 PM 28.0 °F 22.8 °F 19.0 °F 69% 29.87 in 10.0 mi NNW 4.6 mph - N/A   Overcast
1:29 PM 28.4 °F - 19.4 °F 69% 29.88 in 4.0 mi Calm Calm - 0.00 in Snow Light Snow
1:33 PM 28.4 °F - 19.4 °F 69% 29.89 in 1.8 mi Calm Calm - 0.00 in Snow Light Snow
1:53 PM 28.0 °F 22.8 °F 21.9 °F 78% 29.90 in 3.0 mi NNW 4.6 mph - 0.00 in Snow Light Snow
2:53 PM 28.9 °F 23.9 °F 21.9 °F 75% 29.91 in 8.0 mi NW 4.6 mph - 0.00 in Snow Light Snow
3:03 PM 28.4 °F 24.6 °F 23.0 °F 80% 29.91 in 2.5 mi NNW 3.5 mph - 0.00 in Snow Light Snow
3:07 PM 28.4 °F 24.6 °F 24.8 °F 86% 29.91 in 1.8 mi NNW 3.5 mph - 0.00 in Snow Light Snow
3:15 PM 28.4 °F 24.6 °F 24.8 °F 86% 29.91 in 3.0 mi NNW 3.5 mph - 0.00 in Snow Light Snow
3:36 PM 28.4 °F - 24.8 °F 86% 29.91 in 2.0 mi Calm Calm - 0.00 in Snow Light Snow
3:40 PM 28.4 °F - 24.8 °F 86% 29.91 in 1.2 mi Calm Calm - 0.00 in Snow Light Snow
3:44 PM 28.4 °F - 24.8 °F 86% 29.91 in 0.8 mi Calm Calm - 0.00 in Snow Light Snow
3:53 PM 28.9 °F - 25.0 °F 85% 29.92 in 1.2 mi Calm Calm - 0.00 in Snow Light Snow
4:00 PM 28.4 °F - 24.8 °F 86% 29.92 in 3.0 mi Calm Calm - 0.00 in Snow Light Snow
4:08 PM 28.4 °F - 24.8 °F 86% 29.92 in 2.0 mi Calm Calm - 0.00 in Snow Light Snow
4:19 PM 28.4 °F - 26.6 °F 93% 29.92 in 6.0 mi Calm Calm - 0.00 in Snow Light Snow
4:34 PM 28.4 °F 24.6 °F 26.6 °F 93% 29.93 in 2.0 mi West 3.5 mph - 0.00 in Snow Light Snow
4:42 PM 28.4 °F - 26.6 °F 93% 29.93 in 4.0 mi Calm Calm - 0.00 in Snow Light Snow
4:45 PM 28.4 °F - 26.6 °F 93% 29.94 in 2.5 mi Calm Calm - 0.00 in Snow Light Snow
4:48 PM 28.4 °F - 26.6 °F 93% 29.94 in 1.2 mi Calm Calm - 0.00 in Snow Light Snow
4:53 PM 28.9 °F - 27.0 °F 92% 29.94 in 1.0 mi Calm Calm - 0.00 in Snow Light Snow
5:02 PM 28.4 °F - 26.6 °F 93% 29.94 in 2.0 mi Calm Calm - 0.00 in Snow Light Snow
5:09 PM 28.4 °F 24.6 °F 26.6 °F 93% 29.94 in 3.0 mi NW 3.5 mph - 0.00 in Snow Light Snow
5:17 PM 28.4 °F 23.3 °F 26.6 °F 93% 29.95 in 2.5 mi North 4.6 mph - 0.00 in Snow Light Snow
5:24 PM 28.4 °F 24.6 °F 26.6 °F 93% 29.94 in 6.0 mi NNW 3.5 mph - 0.00 in Snow Light Snow
5:35 PM 28.4 °F - 26.6 °F 93% 29.95 in 8.0 mi Calm Calm - 0.00 in   Overcast
5:43 PM 28.4 °F - 26.6 °F 93% 29.95 in 2.5 mi Calm Calm - 0.00 in Snow Light Snow
5:53 PM 28.9 °F - 27.0 °F 92% 29.96 in 2.5 mi Calm Calm - 0.00 in Snow Light Snow
6:02 PM 28.4 °F - 26.6 °F 93% 29.96 in 1.8 mi Calm Calm - 0.00 in Snow Light Snow
6:14 PM 28.4 °F 24.6 °F 26.6 °F 93% 29.96 in 3.0 mi NW 3.5 mph - 0.00 in Snow Light Snow
6:34 PM 28.4 °F 24.6 °F 26.6 °F 93% 29.96 in 1.8 mi NNW 3.5 mph - 0.00 in Snow Light Snow
6:53 PM 28.9 °F 25.2 °F 28.0 °F 96% 29.97 in 1.2 mi North 3.5 mph - 0.00 in Snow Light Snow
6:56 PM 28.4 °F - 28.4 °F 100% 29.97 in 0.8 mi Calm Calm - 0.00 in Snow Light Snow
7:19 PM 28.4 °F - 28.4 °F 100% 29.97 in 0.2 mi Calm Calm - 0.00 in Fog , Snow Heavy Snow
7:33 PM 28.4 °F 24.6 °F 28.4 °F 100% 29.98 in 1.2 mi NW 3.5 mph - 0.00 in Snow Light Snow
7:39 PM 28.4 °F 23.3 °F 28.4 °F 100% 29.97 in 3.0 mi NW 4.6 mph - 0.00 in Snow Light Snow
7:53 PM 28.9 °F 22.8 °F 28.0 °F 96% 29.98 in 9.0 mi North 5.8 mph - 0.00 in   Overcast
8:05 PM 28.4 °F - 26.6 °F 93% 29.97 in 10.0 mi Calm Calm - N/A   Overcast
8:24 PM 28.4 °F - 26.6 °F 93% 29.98 in 10.0 mi Calm Calm - N/A   Overcast
8:53 PM 28.9 °F - 27.0 °F 92% 29.99 in 8.0 mi Calm Calm - 0.00 in Snow Light Snow
9:05 PM 28.4 °F 24.6 °F 26.6 °F 93% 29.99 in 4.0 mi NNW 3.5 mph - 0.00 in Snow Light Snow
9:27 PM 28.4 °F - 26.6 °F 93% 30.00 in 2.5 mi Calm Calm - 0.00 in Snow Light Snow
9:34 PM 28.4 °F - 26.6 °F 93% 30.01 in 4.0 mi Calm Calm - 0.00 in Snow Light Snow
9:53 PM 30.0 °F 25.2 °F 27.0 °F 88% 30.01 in 5.0 mi NNW 4.6 mph - 0.00 in Snow Light Snow
10:13 PM 30.2 °F - 26.6 °F 86% 30.02 in 1.8 mi Calm Calm - 0.00 in Snow Light Snow
10:18 PM 30.2 °F - 26.6 °F 86% 30.02 in 1.0 mi Calm Calm - 0.00 in Snow Light Snow
10:43 PM 30.2 °F - 28.4 °F 93% 30.02 in 1.2 mi Calm Calm - 0.00 in Snow Light Snow
10:51 PM 30.2 °F - 28.4 °F 93% 30.02 in 0.8 mi Calm Calm - 0.00 in Snow Light Snow
10:52 PM 30.0 °F - 28.0 °F 92% 30.03 in 0.8 mi Calm Calm - 0.00 in Snow Light Snow
11:11 PM 30.2 °F 26.7 °F 28.4 °F 93% 30.03 in 1.2 mi NW 3.5 mph - 0.00 in Snow Light Snow
11:25 PM 30.2 °F 26.7 °F 28.4 °F 93% 30.03 in 1.0 mi NNW 3.5 mph - 0.00 in Snow Light Snow
11:32 PM 30.2 °F 26.7 °F 28.4 °F 93% 30.03 in 0.8 mi NNW 3.5 mph - 0.00 in Snow Light Snow
11:43 PM 30.2 °F - 28.4 °F 93% 30.03 in 0.8 mi Calm Calm - 0.00 in Snow Light Snow
11:45 PM 30.2 °F - 28.4 °F 93% 30.03 in 1.0 mi Calm Calm - 0.00 in Snow Light Snow
11:53 PM 30.0 °F - 28.9 °F 96% 30.04 in 1.5 mi Calm Calm - 0.00 in Snow Light Snow